This is the latest recevied weather packets stored in our database for station/object KD8PH. If no packets are shown the sender has not sent any weather packets the latest 10 day(s).
| Time | Temp. | Humidity | Pressure | Rain* | Wind** | Luminosity | Snow |
|---|---|---|---|---|---|---|---|
| 1777508136 | 23.33° C | 77% | 1008.6 hPa | 0.25 mm | - | - | - |
| 1777507536 | 23.33° C | 75% | 1008.5 hPa | 0.25 mm | - | - | - |
| 1777506937 | 23.89° C | 74% | 1008.6 hPa | 0.25 mm | - | - | - |
| 1777506341 | 23.89° C | 75% | 1008.6 hPa | 0.51 mm | - | - | - |
| 1777505744 | 23.89° C | 75% | 1008.6 hPa | 0.51 mm | - | - | - |
| 1777505141 | 24.44° C | 74% | 1008.7 hPa | 0.25 mm | - | - | - |
| 1777504540 | 24.44° C | 74% | 1008.9 hPa | 0.25 mm | - | - | - |
| 1777503958 | 25° C | 73% | 1008.9 hPa | 0.51 mm | - | - | - |
| 1777503336 | 25° C | 73% | 1008.5 hPa | 0.51 mm | - | - | - |
| 1777502759 | 25° C | 73% | 1008.1 hPa | 0.25 mm | - | - | - |
| 1777502147 | 25.56° C | 72% | 1008.4 hPa | 0.25 mm | - | - | - |
| 1777501578 | 25.56° C | 70% | 1008.2 hPa | 0.51 mm | - | - | - |
| 1777500943 | 25.56° C | 70% | 1008.7 hPa | 0.51 mm | - | - | - |
| 1777500346 | 25.56° C | 69% | 1008.9 hPa | 0.25 mm | - | - | - |
| 1777499735 | 25.56° C | 69% | 1008.9 hPa | 0.51 mm | - | - | - |
| 1777499151 | 26.11° C | 70% | 1008.6 hPa | 0.51 mm | - | - | - |
| 1777498545 | 26.11° C | 73% | 1008.4 hPa | 0.51 mm | - | - | - |
| 1777497943 | 26.11° C | 71% | 1008.6 hPa | 0.51 mm | - | - | - |
| 1777497338 | 26.11° C | 70% | 1008.9 hPa | 0.51 mm | - | - | - |
| 1777496736 | 26.11° C | 70% | 1009.1 hPa | 0.51 mm | - | - | - |
| 1777496143 | 26.67° C | 68% | 1009.1 hPa | 0.51 mm | - | - | - |
| 1777495535 | 27.22° C | 67% | 1009 hPa | 0.51 mm | - | - | - |
| 1777494939 | 27.22° C | 67% | 1009 hPa | 0.51 mm | - | - | - |
| 1777494336 | 26.67° C | 69% | 1009.1 hPa | 0.51 mm | - | - | - |
| 1777493737 | 26.67° C | 70% | 1009.1 hPa | 0.51 mm | - | - | - |
* Rain latest hour (hover to see other rain measurements)
** Current wind speed in m/s (hover to see current wind gust speed)